Weather History for Saginaw, MI

Change the Weather History Date:

Saturday, June 8, 2013

  Actual Average Record
Temperature  
Mean Temperature 62 °F 65 °F  
Max Temperature 72 °F 76 °F 93 °F (2011)
Min Temperature 51 °F 55 °F 43 °F (1998)
Degree Days  
Heating Degree Days 3    
Month to date heating degree days 45  
Since 1 June heating degree days 45  
Since 1 July heating degree days 6540  
Cooling Degree Days 0    
Month to date cooling degree days 9  
Year to date cooling degree days 83  
Since 1 June cooling degree days 9  
Growing Degree Days 11 (Base 50)    
Moisture  
Dew Point 51 °F    
Average Humidity 69    
Maximum Humidity 93    
Minimum Humidity 44    
Precipitation  
Precipitation T in 0.10 in 0.76 in (2008)
Month to date precipitation 0.01 0.78  
Year to date precipitation 18.36 12.43  
Snow  
Snow 0.00 in - - ()
Month to date snowfall 0.0  
Since 1 June snowfall 0.0  
Since 1 July snowfall 43.5  
Snow Depth 0.00 in    
Sea Level Pressure  
Sea Level Pressure 30.00 in    
Wind  
Wind Speed 3 mph (NE)    
Max Wind Speed 15 mph    
Max Gust Speed 18 mph    
Visibility 10 miles    
Events      
T = Trace of Precipitation, MM = Missing Value Source: NWS Daily Summary

Daily Weather History Graph

Daily Weather History Graph

Search for Another Location

Airport:

Trip Planner

Search our weather history database for the weather conditions in past years. The results will help you decide how hot, cold, wet, or windy it might be!

Date:

Astronomy

Jun. 08, 2013 Rise Set
Actual Time 5:55 AM EDT 9:15 PM EDT
Civil Twilight 5:19 AM EDT 9:51 PM EDT
Nautical Twilight 4:33 AM EDT 10:37 PM EDT
Astronomical Twilight 3:36 AM EDT 11:35 PM EDT
Moon 6:04 AM EDT (6/8) 9:15 PM EDT (6/8)
Length of Visible Light 16h 31m
Length of Day
15h 20m
New Moon, 0% of the Moon is Illuminated
Jun 8
New Moon
Jun 16
First Quarter
Jun 23
Full
Jun 30
Last Quarter
Jul 8
New

Hourly Weather History & Observations

Time (EDT) Temp. Dew Point Humidity Pressure Visibility Wind Dir Wind Speed Gust Speed Precip Events Conditions
12:53 AM 54.0 °F 50.0 °F 86% 29.95 in 10.0 mi Calm Calm - N/A   Clear
1:53 AM 52.0 °F 48.9 °F 89% 29.95 in 10.0 mi NNW 3.5 mph - N/A   Clear
2:53 AM 52.0 °F 48.9 °F 89% 29.95 in 10.0 mi North 3.5 mph - N/A   Partly Cloudy
3:07 AM 51.8 °F 48.2 °F 88% 29.94 in 10.0 mi North 3.5 mph - N/A   Mostly Cloudy
3:46 AM 51.8 °F 48.2 °F 88% 29.94 in 10.0 mi NW 6.9 mph - N/A   Scattered Clouds
3:53 AM 53.1 °F 50.0 °F 89% 29.94 in 10.0 mi WNW 4.6 mph - N/A   Partly Cloudy
4:53 AM 53.1 °F 50.0 °F 89% 29.94 in 10.0 mi Calm Calm - N/A   Overcast
5:53 AM 54.0 °F 51.1 °F 90% 29.96 in 10.0 mi Calm Calm - N/A   Overcast
6:53 AM 55.0 °F 52.0 °F 89% 29.98 in 10.0 mi Calm Calm - N/A   Overcast
7:53 AM 57.0 °F 51.1 °F 81% 29.98 in 10.0 mi Calm Calm - N/A   Mostly Cloudy
8:53 AM 61.0 °F 51.1 °F 70% 30.00 in 10.0 mi Calm Calm - N/A   Overcast
9:53 AM 63.0 °F 51.1 °F 65% 30.01 in 10.0 mi Calm Calm - N/A   Mostly Cloudy
10:53 AM 64.9 °F 51.1 °F 61% 30.01 in 10.0 mi SE 3.5 mph - N/A   Overcast
11:53 AM 64.9 °F 51.1 °F 61% 30.02 in 10.0 mi Calm Calm - N/A   Overcast
12:53 PM 66.9 °F 52.0 °F 59% 30.02 in 10.0 mi Calm Calm - N/A   Mostly Cloudy
1:53 PM 69.1 °F 51.1 °F 53% 30.01 in 10.0 mi Calm Calm - N/A   Partly Cloudy
2:53 PM 71.1 °F 51.1 °F 49% 29.99 in 10.0 mi East 5.8 mph - N/A   Clear
3:53 PM 70.0 °F 50.0 °F 49% 30.00 in 10.0 mi South 5.8 mph - N/A   Mostly Cloudy
4:53 PM 71.1 °F 48.9 °F 45% 29.99 in 10.0 mi SE 3.5 mph - N/A   Scattered Clouds
5:53 PM 71.1 °F 48.9 °F 45% 30.01 in 10.0 mi SW 3.5 mph - N/A   Scattered Clouds
6:53 PM 70.0 °F 50.0 °F 49% 30.02 in 10.0 mi South 6.9 mph - N/A   Scattered Clouds
7:53 PM 69.1 °F 51.1 °F 53% 30.04 in 10.0 mi Calm Calm - N/A   Overcast
8:53 PM 64.0 °F 53.1 °F 67% 30.06 in 10.0 mi NNE 11.5 mph - 0.00 in   Mostly Cloudy
9:02 PM 64.4 °F 53.6 °F 68% 30.05 in 10.0 mi NNE 15.0 mph - N/A   Scattered Clouds
9:53 PM 61.0 °F 53.1 °F 75% 30.07 in 10.0 mi NE 6.9 mph - N/A   Clear
10:53 PM 59.0 °F 54.0 °F 83% 30.09 in 10.0 mi East 4.6 mph - N/A   Clear
11:53 PM 57.9 °F 53.1 °F 84% 30.09 in 10.0 mi East 4.6 mph - N/A   Clear